Location: Gwatt
(46.7204°N, 7.6223°E)
Time: 13:43:11
(UTC+00:00)

S-56A Canister/Altair - Pass Details

Date: 30 January 2021
Orbit: 632 x 2501 km, 38.9° (Epoch: 28 February)

Event Time Altitude Azimuth Distance (km) Brightness Sun altitude
Rises 01:50:52 0° 252° (WSW) 3,247 - -50.8°
Reaches altitude 10° 01:53:40 10° 242° (WSW) 2,166 - -50.4°
Maximum altitude 01:57:53 32° 180° (S) 1,107 - -49.8°
Drops below altitude 10° 02:01:49 10° 116° (ESE) 2,014 - -49.2°
Sets 02:04:20 0° 106° (ESE) 2,979 - -48.9°
